Flag for Canada Weather past 2 weeks in Caledon, Ontario, Canada

Now
73 °F

Cloudy.


Feels Like: 74 °F
Forecast: 58 / 76 °F
Wind: 8 mph from South

Location: Borden

Current Time: Aug 20, 2014 at 1:29:29 PM

Latest Report: Aug 20, 2014 at 1:00 PM


Visibility: 9 mi

Pressure: 29.87 "Hg

Humidity: 78%

Dew point: 66 °F

Location of CaledonLocation

Historic Weather in Caledon — Graph

°F

Caledon temperature yesterday

Maximum temperature yesterday: 77 °F (at 3:00 PM)
Minimum temperature yesterday: 45 °F (at 4:52 AM)
Average temperature yesterday: 60 °F

Past Weeks' High & Low Weather Summary

 TemperatureHumidityPressure
High84 °F (Aug 11, 3:00 PM)100% (Aug 5, 10:00 PM)30.21 "Hg (Aug 5, 10:00 PM)
Low45 °F (Aug 18, 3:02 AM)38% (Aug 15, 3:00 PM)29.64 "Hg (Aug 12, 7:00 PM)
Average62 °F82%29.96 "Hg
* Reported Aug 5 12:00 Noon — Aug 20 12:01 PM, Caledon, Weather by CustomWeather, © 2014

Note: Actual official high and low records may vary slightly from our data, if they occured in-between our weather recording intervals... More about our weather records

Advertising

Caledon weather history for previous 24 hours

 ConditionsComfort  
Time TempWeatherWind HumidityBarometerVisibility
12:01 PM
Aug 20
72 °FScattered clouds.7 mph83%29.88 "Hg9 mi
11:00 AM72 °FPassing clouds.7 mph78%29.88 "Hg9 mi
10:00 AM66 °FSunny.6 mph83%29.88 "Hg9 mi
9:00 AM63 °FSunny.5 mph88%29.87 "Hg9 mi
8:00 AM59 °FSunny.2 mph94%29.86 "Hg9 mi
7:00 AM55 °FClear.2 mph100%29.86 "Hg9 mi
6:00 AM55 °FClear.No wind100%29.85 "Hg2 mi
5:00 AM57 °FClear.No wind94%29.83 "Hg9 mi
4:00 AM57 °FPassing clouds.3 mph100%29.84 "Hg9 mi
3:00 AM59 °FPassing clouds.3 mph94%29.84 "Hg9 mi
2:51 AM59 °FOvercast.3 mph94%29.84 "Hg9 mi
2:00 AM57 °FPassing clouds.2 mph100%29.84 "Hg9 mi
1:00 AM57 °FDense fog.7 mph94%29.86 "Hg1 mi
12:57 AM57 °FDense fog.7 mph94%29.86 "Hg1 mi
12:00 AM63 °FClear.5 mph73%29.83 "Hg9 mi
11:00 PM
Aug 19
63 °FClear.5 mph68%29.84 "Hg9 mi
10:00 PM63 °FPassing clouds.6 mph68%29.84 "Hg9 mi
9:00 PM66 °FPartly sunny.8 mph64%29.85 "Hg9 mi
8:00 PM68 °FPartly sunny.8 mph60%29.85 "Hg9 mi
7:00 PM70 °FPartly sunny.10 mph64%29.85 "Hg9 mi
6:00 PM72 °FScattered clouds.9 mph57%29.85 "Hg9 mi
5:00 PM75 °FSunny.13 mph54%29.82 "Hg9 mi
4:00 PM75 °FPassing clouds.13 mph54%29.83 "Hg9 mi
3:00 PM77 °FPassing clouds.9 mph51%29.84 "Hg9 mi
2:00 PM75 °FSunny.9 mph47%29.86 "Hg9 mi
1:00 PM73 °FSunny.8 mph53%29.87 "Hg9 mi
Weather by CustomWeather, © 2014

See weather overviewHow to use our weather pages